カタログに戻る

STARLINK-35890

運用中通信VLEO
NORAD 66835·PAYLOAD·🇺🇸 United States

打ち上げ Dec 2, 2025 から Vandenberg Space Force Base

Loading…

次のパス (今後24時間)

TLE

最新Source: CelesTrak SupGP

元期: Sep 15, 2026, 03:02 UTC

1 66835C 25280Q   26258.12687500 -.00024647  00000+0 -20656-2 0  2580
2 66835  70.0009 216.8280 0003122 271.1004   9.2208 14.98341111    11

AllMySatでSTARLINK-35890をリアルタイム追跡

Download on the App Store